Temp
5 5 4 4 4 5 5 5 6 6 6 6 7 7 7 7 7 8 8 8 9 9 9 10 10 10 10 11 11 12 13 13 13 13 13 12 12 12 12 12 12 12 11 11 11 11 11 11 11 11 11 11 11 11 12 12 12 12 13 13 13 14 14 14 15 15 16 16 16
5 5 4 4 4 4 5 5 5 6 6 6 6 6 7 7 7 7 8 8 8 9 9 9 10 10 10 11 11 12 12 12 13 13 13 13 13 13 13 12 12 12 12 12 12 12 12 12 12 12 12 12 12 12 13 13 13 13 13 13 14 14 14 15 15 15 15 16 16
5 5 4 4 4 4 5 5 5 5 6 6 6 6 7 7 7 7 7 8 8 8 9 9 9 10 10 11 11 11 11 12 12 12 13 13 13 13 13 13 13 13 13 12 12 12 12 12 12 12 13 13 13 13 13 13 13 13 13 14 14 14 14 14 15 15 15 15 15
5 5 5 4 4 4 4 5 5 5 6 6 6 6 7 7 7 7 7 8 8 8 8 9 9 9 10 10 11 11 11 11 12 12 12 12 13 13 13 13 13 13 13 12 12 12 12 12 12 13 13 13 13 13 13 13 13 13 13 14 14 14 14 14 14 15 15 15 15
5 5 4 4 4 4 4 5 5 5 5 6 6 6 6 7 7 7 7 7 8 8 8 8 9 9 9 10 11 11 11 11 11 11 12 12 12 13 13 13 13 13 13 13 13 12 13 13 13 12 13 13 13 13 13 13 13 13 13 13 13 13 13 14 14 14 14 14 14
5 5 4 4 4 4 4 4 5 5 5 5 6 6 6 6 6 7 7 7 8 8 8 8 9 9 9 10 10 11 11 11 11 11 11 11 12 12 12 13 13 13 13 13 13 13 13 13 13 13 12 12 12 12 13 13 13 13 13 13 13 13 13 13 13 13 14 14 14
5 5 5 4 4 4 4 4 5 5 5 5 5 5 6 6 6 6 7 7 7 8 8 8 8 9 9 9 10 10 11 11 11 11 11 11 11 12 12 12 12 12 13 13 13 13 13 13 13 13 13 13 13 13 13 13 13 13 13 13 13 13 13 13 13 13 13 13 13
5 4 4 4 4 4 4 4 4 4 5 5 5 5 5 6 6 6 6 7 7 7 7 8 8 8 9 9 9 10 10 11 11 11 11 11 11 11 11 12 12 12 12 12 12 13 13 13 13 13 13 13 13 13 13 13 13 13 13 13 12 12 12 13 13 13 13 13 13
5 5 5 5 5 4 4 5 4 4 4 5 5 5 5 5 6 6 6 7 7 7 7 7 8 8 9 9 9 9 10 10 11 11 11 11 11 11 11 11 12 12 12 12 12 12 12 12 13 13 13 13 13 13 13 13 13 13 13 13 13 13 13 12 12 13 13 13 13
5 5 5 5 5 5 5 5 5 4 4 4 5 5 5 5 5 6 6 6 7 7 7 7 7 8 8 9 9 9 9 10 10 10 11 11 11 11 11 11 11 11 12 12 12 12 12 12 12 12 13 13 13 13 13 13 13 13 13 13 13 13 13 13 13 13 13 13 13
5 5 5 5 5 5 5 5 5 4 4 4 4 4 5 5 5 5 6 6 6 7 7 7 7 7 8 8 8 9 9 9 10 10 10 10 10 10 11 11 11 11 11 11 12 12 12 12 12 12 12 12 13 13 13 13 13 13 13 13 13 12 12 12 13 13 13 13 13
5 5 5 4 4 5 5 5 5 4 4 4 4 4 4 5 5 5 5 6 6 6 7 7 7 7 7 8 8 8 8 9 9 9 10 10 10 10 10 10 11 11 11 11 11 11 12 12 12 12 12 12 12 12 12 12 13 13 13 12 12 12 12 12 12 12 12 12 12
5 5 5 5 5 5 5 5 5 4 4 4 4 4 4 4 5 5 5 6 6 6 6 6 7 7 7 7 8 8 8 8 9 9 9 9 9 10 10 10 10 10 11 11 11 11 11 11 12 12 12 12 12 12 12 12 12 12 12 12 12 12 12 12 12 12 12 12 12
5 5 5 5 5 5 5 4 4 4 4 4 3 3 4 4 4 5 5 5 6 6 6 6 6 7 7 7 7 7 8 8 8 8 9 9 9 9 9 9 10 10 10 11 11 11 11 11 11 11 11 12 12 12 12 12 12 12 12 12 12 12 12 12 12 12 12 11 11
5 5 5 5 5 4 4 4 4 4 4 4 3 3 3 4 4 4 5 5 5 6 6 6 6 6 7 7 7 7 7 7 8 8 8 8 8 9 9 9 9 9 10 10 10 11 11 11 11 11 11 11 11 11 11 11 11 12 12 12 12 12 12 12 12 11 11 11 11
5 5 5 5 4 4 4 4 4 4 3 3 3 3 3 3 4 4 4 5 5 5 5 6 6 6 6 6 7 7 7 7 7 8 8 8 8 8 8 9 9 9 9 10 10 10 11 11 11 11 11 11 11 11 11 11 11 11 11 11 11 11 11 11 11 11 11 11 11
5 5 5 5 4 4 4 3 3 3 3 3 3 3 3 3 3 4 4 4 5 5 5 5 5 5 6 6 6 6 7 7 7 7 7 7 8 8 8 8 8 9 9 9 9 10 10 10 10 10 10 11 11 11 11 11 11 11 11 11 11 11 11 11 11 11 11 11 11
5 5 5 4 4 4 4 3 3 3 3 3 3 3 3 3 3 3 4 4 4 5 5 5 5 5 5 5 6 6 6 6 7 7 7 7 7 7 8 8 8 8 8 9 9 9 10 10 10 10 10 10 10 10 10 10 10 10 11 11 11 11 11 11 11 11 11 11 10
5 5 4 4 4 4 3 3 3 3 3 3 3 3 3 3 3 3 3 4 4 4 4 4 5 5 5 5 5 5 6 6 6 6 7 7 7 7 7 7 8 8 8 8 8 9 9 9 10 10 10 10 10 10 10 10 10 10 10 10 11 11 11 11 11 11 11 11 10
5 5 4 4 4 4 3 3 3 3 3 3 3 3 3 3 3 3 3 4 4 4 4 4 4 4 4 5 5 5 5 5 6 6 6 6 7 7 7 7 7 8 8 8 8 8 9 9 9 10 10 10 10 10 10 10 10 10 10 10 10 10 10 10 10 10 10 10 10
5 4 4 4 4 4 3 3 3 3 3 3 3 3 3 3 3 3 3 3 3 4 4 4 4 4 4 4 4 5 5 5 5 5 6 6 6 6 7 7 7 7 7 8 8 8 8 9 9 9 10 10 10 10 10 10 10 10 10 10 10 10 10 10 10 10 10 10 10
5 4 4 4 4 4 3 3 3 3 3 3 3 3 3 3 3 3 3 3 3 3 4 3 4 4 4 4 4 4 4 5 5 5 5 6 6 6 6 7 7 7 7 7 8 8 8 8 9 9 9 10 10 10 10 10 10 10 10 10 10 10 10 10 10 10 10 10 10
5 4 4 4 4 4 4 3 3 3 3 3 3 3 3 3 3 3 3 3 3 3 3 3 3 3 3 3 3 4 4 4 4 5 5 5 5 6 6 6 6 7 7 7 7 7 8 8 8 9 9 9 10 10 10 10 10 10 10 10 10 10 10 10 10 10 10 10 10
5 5 4 4 4 4 4 4 3 3 3 3 3 3 3 3 3 3 3 3 3 3 3 3 3 3 3 3 3 3 3 4 4 4 4 5 5 5 5 6 6 6 6 7 7 7 7 7 8 8 9 9 9 10 10 10 10 10 10 10 10 10 10 10 10 10 10 10 10
5 5 5 5 4 4 4 4 3 3 3 3 4 4 4 4 4 4 4 3 3 3 3 3 3 3 3 3 3 3 3 3 3 4 4 4 4 5 5 5 5 6 6 6 7 7 7 7 7 8 8 9 9 9 10 10 10 10 10 10 10 10 10 10 10 10 9 9 9
5 5 5 5 4 4 4 3 3 3 3 3 4 4 4 4 4 4 4 4 3 3 3 3 3 3 3 3 3 3 3 3 3 3 4 4 4 4 4 5 5 5 6 6 6 6 7 7 7 8 8 8 9 9 10 10 10 10 10 10 10 10 9 9 9 9 9 9 9
5 5 5 5 4 4 4 3 3 3 3 3 3 4 4 4 4 4 4 4 4 3 3 3 3 3 3 3 3 3 3 3 3 3 3 4 4 4 4 4 5 5 5 6 6 6 6 7 7 8 8 8 9 9 9 10 10 10 10 10 10 10 9 9 9 9 9 9 9
6 5 5 5 4 4 4 3 3 3 3 3 3 4 4 4 4 4 4 4 4 4 3 3 3 3 3 3 3 3 3 3 3 3 3 3 3 4 4 4 4 4 5 5 6 6 6 6 7 8 8 8 8 8 9 9 9 10 10 10 10 10 10 10 9 9 9 9 9
6 5 5 5 4 4 4 3 3 3 3 3 3 3 4 4 4 4 4 4 4 4 3 3 3 3 3 3 3 3 3 3 3 3 3 3 3 3 4 4 4 4 4 5 5 5 6 6 6 7 8 8 8 8 8 9 9 9 10 10 10 10 10 10 10 9 9 9 9
6 6 5 5 5 4 4 3 3 3 3 3 3 3 3 4 4 4 4 4 4 4 3 3 3 3 3 3 3 3 3 3 3 3 3 3 3 3 3 3 3 4 4 5 5 5 5 5 6 6 7 8 7 8 8 8 8 9 9 9 9 9 9 9 9 9 9 9 9
6 6 5 5 5 4 4 3 3 3 3 3 2 3 3 4 4 4 4 4 4 4 3 3 3 3 3 3 3 3 3 3 3 3 3 3 3 3 3 3 3 3 4 4 5 5 5 5 5 6 6 7 7 7 7 8 8 8 8 9 9 9 9 9 9 9 9 9 9
6 6 5 5 5 4 4 3 3 3 3 2 2 2 3 3 3 4 4 4 4 4 3 3 3 3 3 3 2 2 2 2 2 3 3 3 3 3 3 3 3 3 4 4 4 5 5 5 5 5 6 6 6 6 7 7 7 8 8 8 8 8 9 9 9 9 9 9 9
6 6 5 5 5 4 4 4 3 3 3 2 2 2 3 3 3 3 3 3 3 3 3 3 3 3 3 3 2 2 2 2 2 2 2 3 3 3 3 3 3 3 3 4 4 4 5 5 5 5 5 5 6 6 6 7 7 7 7 7 7 8 8 8 9 9 9 9 9
6 6 5 5 5 4 4 4 3 3 3 3 2 2 2 3 3 3 3 3 3 3 3 3 3 3 3 3 2 2 2 2 2 2 2 3 3 3 3 3 3 3 3 4 4 4 4 4 5 5 5 5 5 5 6 6 6 7 7 7 7 7 8 8 8 9 9 9 9
6 5 5 5 5 4 4 4 4 3 3 3 2 2 2 2 3 3 3 3 3 3 3 3 3 3 3 3 2 2 2 2 2 2 2 2 3 3 3 3 3 3 3 3 4 4 4 4 4 4 5 5 5 5 5 5 6 6 6 6 7 7 7 7 8 8 8 9 9
6 6 5 5 5 4 4 4 4 4 3 3 3 2 2 2 3 3 2 2 3 3 3 3 3 3 3 3 3 2 2 2 2 2 2 2 2 3 3 3 3 3 3 3 3 4 4 4 4 4 4 5 5 5 5 5 5 6 6 6 6 6 7 7 7 8 8 8 8
6 6 5 5 4 4 4 4 4 3 3 3 3 2 2 2 2 2 2 2 2 3 3 3 3 3 3 3 3 2 2 2 2 2 2 2 2 2 3 3 3 3 3 3 3 3 4 4 4 4 4 5 5 5 5 5 5 5 6 6 6 6 6 6 7 7 7 7 8
7 6 5 5 4 4 4 4 3 3 3 3 2 2 2 2 2 2 2 2 2 2 3 3 3 3 3 3 3 3 2 2 2 2 2 2 2 2 3 3 3 3 3 3 3 3 3 4 4 4 4 4 5 5 5 5 5 5 6 6 6 6 6 6 6 7 7 7 7
7 6 6 5 4 4 4 3 3 3 2 2 2 2 2 2 2 2 2 2 2 2 2 3 3 3 3 3 3 3 3 3 2 2 2 2 2 2 2 3 3 3 3 3 3 3 3 3 4 4 4 4 4 5 5 5 5 5 5 6 6 6 6 6 6 6 6 7 7
7 6 6 5 4 4 4 3 3 3 3 2 2 2 2 2 2 2 2 2 2 2 2 2 2 2 2 3 3 3 3 3 3 2 2 2 2 2 2 3 3 3 3 3 3 3 3 3 3 3 4 4 4 4 4 5 5 5 5 5 5 6 6 6 6 6 6 6 7
7 6 6 5 4 4 4 3 3 3 3 2 2 2 2 2 2 2 2 2 2 2 2 2 2 2 2 3 3 3 3 3 3 3 2 2 2 2 2 3 3 3 3 3 3 3 3 3 3 3 3 4 4 4 4 4 5 5 5 5 5 5 5 5 6 6 6 6 6
Height
723 721 720 718 717 716 714 713 711 710 708 706 704 703 700 698 696 694 692 690 688 686 684 681 679 676 674 671 669 667 664 663 661 660 658 657 656 654 653 652 651 650 649 649 648 648 649 649 649 648 648 648 648 648 647 646 646 646 646 646 646 646 647 648 648 648 649 649 650
723 722 720 719 717 716 714 713 711 710 708 707 705 703 701 699 697 695 693 691 689 687 684 682 679 677 674 672 670 668 666 664 663 661 660 658 657 656 654 653 652 651 650 649 649 648 649 648 648 648 647 647 646 646 645 644 644 644 645 645 645 645 646 648 648 649 650 650 651
723 721 720 719 717 716 714 713 711 710 708 707 705 703 702 700 698 696 693 692 689 687 685 683 680 678 675 673 671 669 667 665 663 662 660 659 658 656 655 654 653 652 651 650 650 649 649 649 648 647 646 646 645 644 644 644 644 644 644 644 645 646 647 648 649 650 651 652 652
723 722 720 719 718 716 715 713 712 710 708 707 705 704 702 701 698 697 694 692 690 688 686 683 681 678 676 674 673 670 668 667 665 663 662 660 659 657 656 655 654 653 653 652 651 651 650 649 648 647 646 646 645 645 645 646 645 645 645 645 646 646 647 648 649 650 651 652 653
723 722 720 719 718 716 715 713 712 711 709 708 706 704 703 701 699 697 695 693 691 689 687 684 682 680 678 676 674 672 670 668 666 664 663 661 660 658 657 656 655 654 654 653 653 652 652 651 650 649 648 647 647 647 647 647 647 647 647 647 647 648 648 649 650 651 652 653 654
723 722 721 719 718 717 715 714 713 711 710 708 707 705 703 702 700 698 696 694 692 690 688 685 683 681 678 677 675 673 671 669 668 666 664 663 661 660 658 658 656 655 655 654 653 653 653 652 652 651 651 650 650 649 648 648 649 649 649 649 648 648 649 649 650 651 653 653 654
723 722 721 719 718 717 716 714 713 711 710 708 707 706 704 703 701 699 697 695 693 691 688 686 684 682 680 678 676 674 673 671 669 668 666 664 663 662 660 659 658 657 656 655 654 654 653 653 653 652 652 652 651 651 650 650 650 650 650 650 649 649 649 650 651 652 653 654 655
723 722 721 719 718 717 716 714 713 712 710 709 708 706 705 703 701 699 698 695 693 692 690 688 686 684 682 680 678 676 674 672 670 669 668 666 665 663 662 660 659 658 657 656 655 655 654 654 653 653 653 652 652 651 651 651 651 651 651 651 650 650 650 651 651 652 653 654 654
723 722 721 719 718 717 716 715 713 712 711 709 708 707 705 703 702 700 698 697 695 693 691 689 687 685 683 681 679 677 675 674 672 671 669 668 666 665 663 662 661 659 658 657 656 656 655 654 654 654 653 653 653 652 652 652 651 651 651 651 651 651 652 652 653 653 654 654 655
723 722 721 719 718 717 716 715 714 713 711 710 708 707 705 704 703 701 699 698 696 694 692 690 688 686 684 683 681 679 677 675 674 672 671 669 668 666 665 663 662 661 660 659 658 657 656 656 655 655 654 654 653 653 653 653 653 652 652 652 652 652 653 653 654 654 655 655 655
723 722 721 719 718 717 716 715 714 713 711 710 708 707 706 704 703 702 700 699 697 695 693 692 689 688 686 684 682 681 679 677 675 674 672 671 669 668 667 665 664 663 662 660 659 659 658 657 657 656 656 655 654 654 654 654 653 653 653 653 653 653 653 654 654 655 655 656 656
724 722 721 719 718 717 716 715 714 713 712 711 709 708 706 705 704 702 701 699 698 696 694 693 691 689 687 685 684 682 680 678 677 675 674 672 671 669 668 667 665 664 663 662 661 660 659 659 658 658 657 656 656 655 655 655 655 654 654 654 654 654 654 654 655 655 656 656 657
724 723 721 720 718 717 716 715 714 713 712 711 710 708 707 706 704 703 701 700 698 697 695 694 692 690 689 687 686 684 682 680 679 677 675 674 672 671 669 668 667 666 665 663 663 662 661 660 660 659 658 658 657 657 656 656 656 656 656 656 655 655 655 656 656 656 657 657 658
724 723 721 720 718 717 716 715 714 713 712 711 710 709 708 707 705 704 702 701 700 698 697 695 693 692 690 689 687 685 684 682 680 679 677 676 674 672 671 670 668 667 666 665 664 663 663 662 661 661 660 660 659 658 658 658 657 657 657 657 657 657 657 657 657 657 658 658 658
724 723 721 720 718 718 716 715 714 714 713 712 711 710 709 708 706 705 703 702 701 699 698 696 695 693 692 690 688 687 685 684 682 680 679 677 676 674 673 671 670 668 668 667 666 665 664 663 663 662 662 661 660 660 659 659 659 658 658 658 658 658 658 658 658 658 658 659 659
724 723 721 720 719 718 717 716 715 714 713 713 711 710 709 708 707 706 704 703 702 700 699 698 696 694 693 691 690 688 687 685 683 682 680 679 677 676 674 673 671 670 669 668 667 666 665 665 664 663 663 662 662 661 661 660 659 659 659 659 659 659 659 659 659 659 659 659 659
724 723 722 720 719 718 718 717 716 715 714 713 712 711 710 709 708 706 705 704 703 702 700 699 697 696 694 693 691 689 688 686 685 683 682 681 679 678 676 675 673 672 671 669 668 668 667 666 665 665 664 663 663 662 662 661 660 660 660 660 660 660 659 659 660 660 660 660 660
724 723 722 721 720 719 718 717 716 715 714 713 712 711 710 709 708 707 706 705 704 703 701 700 698 697 696 694 693 691 690 688 687 685 684 683 682 680 678 677 675 674 673 671 670 669 668 667 667 666 665 665 664 664 663 663 662 662 661 661 661 661 661 661 660 660 661 661 661
724 723 722 721 720 719 718 717 716 715 714 713 713 712 711 710 709 708 706 705 704 703 702 701 699 698 697 695 694 693 691 690 688 687 686 685 683 682 680 679 677 676 674 673 672 670 669 669 668 667 667 666 666 665 665 664 664 663 663 663 662 662 662 662 662 662 661 661 662
725 723 722 721 720 719 718 717 716 715 714 713 713 712 711 710 709 708 707 706 705 704 703 702 700 699 698 697 695 694 693 692 690 689 688 686 685 683 682 681 679 678 676 674 673 672 671 670 669 668 668 668 667 667 666 666 665 665 664 664 663 663 663 663 663 663 662 662 662
725 723 723 722 721 719 718 717 716 716 715 714 713 712 711 710 709 708 707 707 705 704 703 702 701 700 699 698 696 695 694 693 692 691 689 688 687 685 684 683 681 679 678 676 674 673 672 671 670 670 669 669 668 668 668 667 667 666 665 665 664 664 664 664 663 663 663 663 663
725 724 723 722 721 720 718 718 717 716 715 714 713 712 711 710 709 708 708 707 706 705 704 703 702 701 700 699 698 697 695 694 693 692 691 690 688 687 686 684 683 681 679 678 676 675 673 672 671 670 670 670 669 669 669 668 668 667 666 666 665 665 665 664 664 664 664 664 664
725 724 723 722 721 720 718 718 717 716 715 714 713 712 711 710 710 709 708 707 706 705 704 703 703 702 701 700 699 698 697 695 694 693 692 691 690 688 687 686 684 683 682 680 679 677 675 673 672 671 671 670 670 670 669 669 669 668 668 667 666 666 665 665 665 665 665 665 665
724 723 723 722 721 720 718 718 717 716 715 714 713 712 711 711 710 709 708 707 706 705 704 704 703 702 701 700 699 698 697 696 695 694 693 692 691 690 688 687 686 685 684 683 681 680 678 676 674 673 672 671 671 671 670 670 670 669 669 668 668 667 667 666 666 666 666 666 666
724 723 723 722 721 720 719 718 717 716 715 714 713 713 712 711 710 709 708 708 707 706 705 704 703 703 702 701 700 699 698 697 696 695 694 693 692 691 690 688 688 687 685 684 683 682 680 678 677 675 673 672 672 671 671 671 671 670 670 669 669 668 668 668 667 667 667 667 667
724 723 722 721 721 720 719 718 717 716 715 714 713 713 712 711 710 710 709 708 707 706 705 704 703 703 702 701 700 700 699 698 697 696 695 694 693 692 691 690 689 688 687 686 684 683 681 680 678 677 675 674 673 673 672 672 672 671 671 671 670 670 669 669 668 668 668 668 668
724 723 722 721 720 719 719 718 717 716 715 714 713 713 712 711 711 710 709 708 707 706 705 704 703 703 702 702 701 700 699 699 698 697 697 696 695 693 693 692 691 690 689 688 686 684 683 681 679 678 676 675 674 674 673 673 673 672 672 672 671 671 671 670 670 669 669 669 669
724 723 722 721 720 720 719 718 717 716 715 714 714 713 712 712 711 710 709 708 707 706 705 704 704 703 703 702 701 701 700 700 699 698 698 697 696 695 694 693 692 691 690 689 687 686 684 682 680 679 678 676 675 675 674 674 673 673 673 673 672 672 672 671 671 670 670 670 670
724 723 722 721 721 720 719 718 717 716 715 715 714 713 713 712 711 710 709 708 708 707 706 705 704 704 703 703 702 701 701 700 699 699 698 698 697 696 695 694 693 693 691 690 688 687 685 683 682 680 679 678 677 676 675 675 674 674 673 673 673 673 673 672 672 672 671 671 671
724 723 722 722 721 720 719 718 717 717 716 715 714 713 713 712 711 710 709 709 708 707 707 706 705 704 704 703 703 702 701 701 700 699 699 698 698 697 696 695 695 693 692 691 690 688 687 685 683 682 680 678 678 677 677 676 675 675 674 674 674 674 673 673 673 672 672 672 671
724 723 722 722 721 720 719 718 718 717 716 715 714 713 713 712 711 711 710 709 708 708 707 707 706 705 704 704 703 703 702 701 701 700 699 699 698 698 697 696 695 694 693 692 691 689 688 686 684 683 681 680 679 678 678 677 677 676 675 675 675 674 674 674 673 673 673 673 672
724 723 722 722 721 720 719 718 718 717 716 715 715 714 713 713 712 711 710 710 709 708 707 707 706 705 704 704 703 703 702 702 701 700 700 699 699 698 698 697 696 695 694 693 692 690 688 687 685 683 682 681 680 679 679 678 678 677 676 676 675 675 674 674 674 674 673 673 673
723 723 722 722 721 720 719 718 718 717 717 716 715 714 713 713 712 712 711 710 709 708 708 707 706 705 705 704 703 703 703 702 702 701 700 700 699 699 698 697 697 696 695 694 693 691 690 688 686 684 683 682 681 680 680 679 678 678 677 677 676 675 675 675 675 674 674 674 674
723 723 722 722 721 720 719 719 718 717 717 716 715 714 713 713 712 712 711 710 710 709 708 708 707 706 705 705 704 703 703 702 702 701 701 700 700 699 698 698 697 696 695 694 693 692 691 689 687 685 684 683 682 681 681 680 679 679 678 678 677 676 676 675 675 675 675 675 674
723 723 722 721 721 720 719 719 718 718 717 716 715 714 714 713 713 712 711 711 710 710 709 708 708 707 706 705 704 704 703 703 702 702 701 700 700 699 699 698 698 697 696 695 694 693 692 690 688 687 685 684 683 682 681 681 680 680 679 678 678 677 677 676 676 675 675 675 675
723 723 722 721 721 720 719 719 718 718 717 716 715 715 714 713 713 712 712 711 711 710 709 708 708 707 706 705 704 704 703 703 702 702 701 701 700 699 699 698 698 697 696 695 694 693 692 691 689 688 686 685 684 683 683 682 681 680 680 679 678 678 677 677 676 676 676 675 675
723 722 722 721 721 720 719 719 718 718 717 716 715 715 714 713 713 713 712 711 711 710 710 709 708 707 707 706 705 704 704 703 703 702 702 701 700 700 699 699 698 697 696 695 694 693 693 691 690 689 688 686 685 684 683 683 682 681 681 680 679 679 678 677 677 676 676 676 675
723 722 722 721 721 720 719 718 718 717 717 716 715 715 714 714 713 713 712 712 711 711 710 709 709 708 707 706 706 705 704 704 703 703 702 701 701 700 700 699 698 698 697 696 695 694 693 692 691 690 688 688 687 686 685 684 683 682 682 681 680 679 679 678 678 677 677 676 676
722 722 721 721 720 720 719 718 718 717 717 716 715 715 714 714 713 713 713 712 712 711 711 710 709 708 708 707 706 705 705 704 703 703 702 702 701 701 700 699 699 698 697 697 696 694 693 693 692 690 689 688 688 687 686 685 684 683 682 682 681 680 679 679 678 677 677 677 676
722 721 721 721 720 720 719 718 718 717 717 716 715 715 714 714 714 713 713 712 712 711 711 710 710 709 708 708 707 706 705 705 704 703 703 702 702 701 701 700 699 698 698 697 696 695 694 693 692 691 690 689 688 688 687 686 685 684 683 682 681 680 680 679 678 678 677 677 676
722 721 721 720 720 719 719 718 718 717 716 716 715 715 715 714 714 713 713 713 712 712 711 711 710 709 708 708 707 707 706 705 704 704 703 703 702 702 701 700 700 699 698 698 697 696 695 694 693 692 691 690 689 688 688 687 686 685 684 683 682 681 680 679 678 678 678 677 677
Wind_Speed
14 14 15 15 15 15 14 14 15 16 17 17 18 19 19 20 20 20 20 21 21 21 22 22 23 24 25 26 26 25 23 21 20 18 15 11 9 10 10 10 10 9 12 16 18 20 21 21 21 23 23 22 21 20 20 22 22 20 18 16 16 17 17 16 14 12 10 9 9
14 14 14 14 15 15 15 14 15 16 17 18 18 19 19 19 20 21 21 22 22 22 22 23 24 25 26 26 27 26 24 22 20 18 16 14 13 12 12 12 13 12 9 4 1 4 6 9 11 13 14 13 12 12 13 16 16 15 14 15 15 15 15 15 12 11 10 10 10
16 15 14 14 16 16 15 15 16 18 18 18 19 19 19 19 19 20 21 23 23 23 24 25 26 26 26 26 27 27 26 24 22 20 18 17 15 14 12 12 13 14 14 13 11 9 6 4 2 2 3 3 4 5 7 9 12 12 13 14 13 13 13 12 11 10 10 10 10
16 16 15 15 16 16 15 15 16 18 18 18 18 18 19 19 19 19 21 23 23 23 24 26 27 27 26 25 26 27 27 26 25 23 21 19 18 15 13 12 13 14 14 12 11 10 9 8 7 6 5 5 4 4 5 7 9 11 12 12 12 12 12 11 11 10 10 10 11
17 16 15 15 15 16 15 15 16 17 17 17 17 18 19 19 19 20 21 22 22 23 23 25 26 27 26 25 25 25 26 26 26 24 23 21 20 18 15 12 12 13 13 12 11 10 10 10 10 10 9 9 8 7 7 7 8 9 10 10 11 12 12 11 11 11 11 11 11
17 16 16 15 15 15 15 15 16 16 16 16 17 18 19 19 20 21 21 21 21 22 23 24 26 27 27 26 25 24 25 25 26 25 24 24 23 21 18 15 13 13 12 12 11 10 10 10 11 11 12 13 12 10 9 9 8 8 7 8 9 11 12 12 11 11 11 11 11
16 16 16 16 15 14 14 15 15 16 16 16 18 19 20 20 21 22 22 21 21 22 23 23 24 26 26 26 25 24 24 25 25 25 25 24 23 22 20 18 16 14 13 12 11 10 9 9 9 9 10 11 11 11 10 9 9 8 7 7 7 8 9 10 11 11 11 11 10
15 16 16 15 15 14 14 14 14 15 16 16 18 19 20 20 21 22 21 21 21 22 23 23 24 24 24 24 25 25 24 24 25 25 25 24 24 23 22 20 18 16 14 13 12 11 10 9 8 7 6 6 7 8 8 8 8 7 7 7 6 7 8 8 9 10 10 10 10
16 16 16 15 15 15 14 13 13 14 15 17 18 19 19 20 21 21 21 21 21 22 22 23 23 24 23 23 23 24 24 24 24 24 25 25 25 24 23 21 20 18 16 15 13 12 11 10 10 8 7 5 5 4 5 5 6 6 6 6 6 6 6 7 8 9 9 10 10
16 16 16 16 15 15 14 13 13 13 15 16 18 18 18 19 20 21 21 21 21 21 22 23 23 23 23 23 23 24 24 24 24 23 23 24 25 25 24 23 22 20 18 17 15 13 13 12 12 11 10 7 6 4 3 3 3 4 5 5 6 6 7 7 8 9 9 9 10
15 16 16 16 16 15 14 13 12 13 14 16 18 18 18 19 20 20 20 20 20 21 22 22 23 23 23 23 23 23 24 24 24 24 23 23 24 25 25 24 23 22 21 19 17 15 14 14 13 13 12 10 9 7 5 4 3 3 4 5 6 6 7 8 9 10 10 10 10
15 16 16 16 16 15 15 13 13 13 14 15 17 18 18 19 20 20 20 20 20 21 21 22 22 23 23 23 23 23 23 24 24 24 24 24 24 24 24 24 24 23 22 21 19 17 16 15 14 14 13 12 11 10 9 8 5 4 3 4 5 6 6 7 9 9 10 11 11
16 16 16 16 16 16 15 14 14 13 14 15 16 17 17 18 19 20 20 20 20 20 21 21 21 22 22 22 22 23 23 24 24 24 24 24 24 24 24 24 24 24 23 22 21 20 18 17 16 15 14 13 13 12 10 9 8 6 4 2 2 3 5 6 7 8 9 10 11
16 16 16 16 16 16 16 15 14 14 14 14 15 15 16 17 18 19 20 20 20 20 20 21 21 21 21 22 22 22 22 22 23 23 24 24 24 25 25 25 25 24 24 23 22 21 20 19 18 17 15 14 14 13 12 10 8 7 5 4 3 1 2 4 5 6 7 9 10
16 17 17 17 17 16 16 15 14 14 14 14 14 14 15 16 17 18 19 19 19 19 20 20 20 20 21 21 21 21 22 22 22 23 23 24 24 25 25 25 25 25 24 23 22 22 21 20 19 18 17 16 15 14 13 12 10 8 7 6 5 3 2 0 2 4 5 7 8
16 17 17 17 17 16 16 14 13 13 13 13 14 14 14 14 15 16 18 18 18 18 19 20 20 20 20 20 21 21 21 22 22 23 23 24 24 25 25 26 26 25 25 24 23 22 21 20 19 19 18 17 16 15 14 13 12 10 9 7 6 5 4 2 0 1 3 5 6
16 17 17 17 16 16 15 14 13 13 13 13 13 13 13 14 14 15 16 17 17 18 19 19 19 19 20 20 20 20 21 21 22 22 23 23 24 25 25 25 26 26 25 25 24 23 22 21 20 19 18 18 17 16 15 14 13 12 11 9 8 7 6 4 3 2 2 3 5
16 16 16 16 16 15 15 14 13 12 12 13 13 13 13 13 14 14 15 16 16 17 18 18 19 19 19 20 20 20 20 21 21 22 22 22 23 24 25 25 26 26 26 25 24 23 22 21 20 19 19 18 17 16 15 14 13 13 12 11 10 9 8 6 5 4 4 3 4
15 16 16 15 15 14 14 14 13 12 12 12 12 12 13 13 14 14 15 15 16 16 16 17 18 19 19 19 19 19 19 20 21 21 21 21 22 23 24 25 25 26 26 26 25 24 23 21 20 19 18 18 17 16 15 14 13 12 11 11 10 10 8 7 6 6 5 4 5
15 15 15 14 14 14 14 13 12 12 11 12 12 12 13 13 13 14 15 15 15 15 15 16 17 18 19 19 19 19 19 19 20 20 20 20 21 22 22 23 24 26 26 27 27 26 24 22 20 19 17 17 16 16 15 14 13 12 11 11 10 9 8 7 6 5 5 5 5
14 14 14 13 13 13 13 13 12 12 11 12 12 12 12 13 13 14 14 14 14 15 15 15 16 18 19 19 19 19 18 18 19 19 20 20 20 21 21 21 23 24 26 28 28 27 25 23 21 19 17 16 15 15 15 14 13 12 11 11 10 10 9 8 7 6 5 5 5
14 13 13 13 13 13 13 13 13 12 12 12 12 12 12 13 13 13 13 14 14 14 15 15 16 16 17 18 18 18 18 18 18 18 19 19 19 19 20 20 21 23 25 27 28 28 26 25 23 20 18 15 15 14 14 14 13 12 12 11 11 11 10 9 8 7 7 6 6
14 13 13 13 13 13 13 13 13 13 13 13 13 13 12 12 12 12 13 13 14 14 14 15 15 15 16 17 17 17 18 18 18 18 18 18 18 19 19 19 20 22 24 25 27 27 27 25 24 22 19 16 14 14 13 13 13 13 12 11 11 11 11 10 9 8 8 7 6
14 14 13 13 13 13 13 13 13 13 14 14 13 13 13 12 12 12 13 13 14 14 14 14 14 15 15 16 17 17 17 18 19 19 19 19 19 18 18 19 20 21 23 25 27 27 26 25 24 22 20 17 15 13 13 12 12 12 11 11 10 10 10 10 9 9 8 7 6
14 14 14 14 13 13 14 14 14 14 14 14 13 13 13 13 12 12 12 13 13 13 14 14 14 15 15 16 17 17 17 18 18 19 19 19 19 19 18 18 19 21 23 25 26 26 25 24 23 22 20 17 15 14 12 11 11 11 10 10 9 9 9 9 9 8 7 6 5
13 14 14 14 14 14 14 14 14 14 14 14 14 14 13 13 12 12 12 12 13 13 13 13 14 14 15 15 16 17 17 17 18 18 19 19 19 19 18 18 19 20 23 26 26 25 24 24 23 21 19 17 15 14 13 11 11 10 9 9 9 8 8 8 8 7 6 6 5
13 13 14 14 14 14 14 14 14 14 14 14 14 14 13 13 12 12 12 12 12 12 12 13 13 14 14 15 16 17 17 17 17 17 18 18 18 18 18 18 19 21 23 25 25 25 24 24 23 20 18 17 15 14 13 12 11 10 9 8 8 7 7 7 6 6 5 4 4
13 13 13 14 13 13 13 14 14 15 14 14 13 13 13 12 12 13 13 13 13 12 12 12 13 13 14 14 15 16 16 16 16 17 17 17 17 17 17 18 18 20 23 24 24 24 25 25 23 20 18 16 15 14 14 13 12 11 10 8 8 7 7 6 6 5 4 3 3
13 13 13 12 12 13 13 14 14 14 14 13 13 13 13 12 13 13 13 13 13 13 13 12 12 13 14 14 14 15 15 16 16 16 16 17 16 16 17 17 18 20 23 24 24 24 25 25 24 21 18 16 15 15 14 14 13 12 11 10 9 8 7 7 6 5 5 3 2
12 12 12 11 11 12 12 13 13 13 13 13 13 13 12 12 13 13 13 13 13 13 12 12 12 13 13 14 14 15 15 15 16 16 16 16 16 16 16 16 18 20 22 24 24 24 24 25 24 22 19 16 15 14 14 14 14 13 12 12 10 9 8 7 7 6 5 4 3
12 12 11 11 11 11 11 12 12 12 12 12 12 12 12 12 13 13 13 13 13 12 12 12 12 13 13 13 14 14 15 15 16 16 16 16 16 15 15 15 17 19 22 23 24 24 24 24 24 23 20 17 15 14 13 13 13 13 13 13 12 11 9 7 7 6 6 5 4
11 11 11 10 10 10 11 11 11 11 11 11 12 12 12 12 12 12 12 12 12 12 12 13 13 13 13 13 14 14 15 15 16 16 16 16 15 15 14 15 16 19 21 23 23 24 24 24 25 23 21 18 15 14 13 12 12 13 14 14 14 13 11 9 7 6 6 6 5
11 11 10 10 10 10 10 10 10 10 10 11 11 11 11 11 11 11 12 12 12 12 12 13 13 13 13 13 14 14 14 15 15 15 16 15 15 15 14 14 16 19 21 22 23 23 24 24 24 23 22 19 15 13 13 12 11 12 13 14 14 14 13 11 9 7 6 7 7
11 10 10 9 9 10 10 10 9 9 9 9 10 10 10 10 11 11 12 12 11 11 12 12 12 12 12 12 13 13 14 14 15 15 16 16 15 15 15 14 16 18 21 22 22 23 23 24 24 23 22 19 16 14 13 13 12 12 13 13 14 14 14 13 11 9 7 6 6
10 10 9 9 9 9 9 9 9 9 9 9 9 10 10 10 10 10 11 11 11 11 11 11 11 11 11 12 12 13 14 14 15 15 16 16 16 15 15 15 15 18 20 22 22 23 23 23 24 23 21 19 16 14 13 13 12 12 13 13 13 14 14 14 12 11 9 7 6
10 9 9 8 8 8 9 9 9 8 8 9 9 9 9 9 9 10 10 10 10 10 11 11 12 12 12 12 12 13 13 14 14 15 15 16 16 16 15 15 16 17 20 22 22 23 23 23 23 23 21 18 16 14 14 13 12 12 13 12 13 13 14 14 13 12 11 9 8
9 9 8 8 8 8 8 8 8 8 8 8 8 9 9 9 9 9 9 10 10 10 10 11 12 12 12 12 12 12 13 13 13 14 15 16 16 16 16 15 16 17 19 21 22 22 23 23 23 22 20 17 15 15 14 13 13 13 13 12 12 12 13 14 13 12 11 10 9
8 8 8 7 7 7 7 7 7 7 8 8 8 8 8 8 8 8 9 9 9 9 10 11 11 12 12 11 11 11 12 13 13 13 14 15 16 16 16 16 16 17 18 20 21 22 23 23 23 23 20 17 15 14 14 13 13 13 13 13 12 12 12 12 13 12 12 11 10
7 8 8 7 7 7 7 7 7 7 7 7 7 7 7 7 7 7 8 8 8 8 9 9 10 11 11 11 10 11 12 12 12 13 13 14 15 15 15 15 16 16 18 19 21 22 22 23 23 23 21 18 15 14 13 13 13 14 14 13 13 12 12 11 11 12 12 12 11
6 7 7 7 7 7 6 6 6 6 7 7 6 6 7 7 7 7 7 7 8 8 8 8 9 10 10 10 10 11 11 12 12 12 12 13 14 14 15 15 15 16 17 18 20 21 22 22 22 23 22 19 16 14 13 13 13 14 14 14 14 13 13 12 11 11 11 12 12
6 7 7 7 7 6 6 6 5 6 6 6 6 6 6 6 6 6 6 7 7 7 7 7 8 9 9 9 9 10 11 12 12 12 12 12 13 13 14 14 15 16 16 17 19 20 21 21 22 22 21 20 17 15 14 14 14 14 15 15 15 14 14 13 12 11 11 11 11
Wind_Direction
354 352 351 349 346 343 341 339 339 340 341 341 341 341 340 340 339 339 340 342 342 342 342 344 346 348 350 354 354 354 353 355 360 3 2 352 332 323 324 327 320 294 264 247 245 244 242 240 238 237 238 239 239 238 237 237 236 231 223 207 192 183 181 182 185 187 187 187 189
356 355 354 352 350 348 345 342 343 344 344 343 343 343 343 342 341 340 341 343 343 344 345 348 351 353 355 358 1 2 0 359 359 0 0 357 351 349 354 6 16 22 28 47 176 221 227 228 231 233 234 233 225 218 220 226 223 213 198 187 181 178 178 179 180 181 183 187 190
359 358 357 355 354 353 350 346 345 345 345 345 347 347 346 345 344 343 343 345 347 349 350 351 355 357 359 1 5 8 8 5 2 0 360 358 356 357 2 12 24 34 46 61 75 83 86 94 134 198 221 223 201 189 190 197 194 187 179 174 171 170 171 171 173 177 182 185 189
3 1 359 357 357 356 353 348 346 346 347 347 349 349 349 348 347 345 345 348 351 353 354 355 358 -0 2 3 6 9 11 10 8 5 4 3 4 4 6 13 23 33 43 56 68 76 78 74 75 73 71 72 83 102 127 149 159 162 163 163 162 163 165 168 173 177 181 185 191
4 3 1 358 358 358 356 353 350 349 349 350 350 351 351 351 350 349 349 350 351 353 355 358 1 3 5 6 8 10 12 13 12 11 9 9 10 11 12 13 19 26 33 42 51 63 73 76 76 76 75 75 74 76 88 110 126 136 142 147 151 155 161 166 172 178 182 186 190
3 3 3 1 359 359 359 357 355 353 352 352 353 353 353 352 352 352 351 350 351 353 357 0 3 5 7 9 11 11 13 14 14 14 13 13 15 16 16 17 17 20 24 29 37 51 65 72 78 86 93 93 89 83 83 90 99 108 117 126 137 148 156 161 167 172 178 181 184
3 3 4 4 2 360 359 0 0 359 358 356 356 355 354 354 354 353 352 352 353 355 357 0 2 4 6 9 11 12 13 14 16 16 16 15 16 17 18 20 20 21 22 23 27 37 52 63 71 83 94 103 101 98 96 95 96 97 96 98 112 128 141 150 161 166 169 170 173
4 5 6 6 4 2 1 2 2 2 2 360 358 357 356 356 356 356 355 356 356 356 357 360 1 3 5 7 9 12 14 15 18 18 18 17 17 18 19 20 21 21 21 22 23 29 38 47 53 64 81 96 106 108 108 108 109 109 106 103 108 119 130 141 151 156 159 160 164
5 7 7 8 6 5 4 3 3 4 4 2 1 0 359 358 358 358 358 357 357 358 359 1 2 4 6 8 10 12 14 15 17 18 19 19 19 18 19 19 19 19 19 20 23 28 32 34 32 34 43 59 76 95 107 109 112 115 118 121 127 137 145 149 152 156 159 162 164
6 7 8 8 8 7 7 6 5 6 6 5 5 4 2 1 1 1 360 358 358 0 2 3 4 5 6 8 10 12 15 16 17 18 19 20 20 19 19 19 19 19 18 18 21 26 31 32 29 27 26 30 37 51 73 87 97 109 118 128 141 152 160 168 171 172 173 175 177
8 9 9 9 9 10 10 8 7 6 7 5 6 6 5 4 3 2 2 1 1 2 4 5 6 7 8 9 10 12 15 18 19 19 20 21 20 20 19 19 19 20 20 20 21 24 27 29 29 28 27 27 29 31 37 51 76 105 123 141 153 160 165 173 180 183 185 187 190
10 11 11 11 11 12 12 11 9 8 6 5 5 7 7 5 4 4 4 4 3 4 5 7 8 9 10 10 11 13 15 18 19 21 22 22 21 21 20 19 19 20 21 21 22 23 25 27 29 30 30 30 31 31 31 37 52 76 109 137 158 166 171 176 181 186 190 192 194
13 13 13 13 14 14 14 14 12 9 7 5 4 5 6 5 6 6 6 5 5 5 6 8 10 11 11 12 12 13 15 18 20 22 23 22 22 21 21 21 20 19 20 21 23 24 25 26 28 29 31 33 33 32 30 32 39 48 59 82 138 166 176 181 184 186 188 190 192
15 16 16 15 15 15 16 15 13 10 7 5 4 4 4 5 7 8 8 6 6 6 7 8 10 12 12 13 13 14 15 17 19 20 22 22 22 22 21 21 20 19 19 19 21 24 25 26 27 28 30 33 34 32 29 26 30 34 36 34 36 61 178 186 186 185 185 186 188
18 18 18 18 17 16 16 15 13 10 7 4 3 3 4 4 6 8 9 8 8 8 9 10 11 12 13 14 14 15 16 17 18 20 21 21 22 22 21 21 20 19 19 18 20 22 24 25 27 28 29 31 33 33 31 28 26 26 27 27 26 23 20 179 188 187 187 187 187
19 19 19 19 18 17 16 14 12 9 6 4 3 4 5 4 5 8 9 9 9 10 11 11 12 13 14 15 16 16 17 18 18 19 20 20 20 21 21 20 19 19 18 19 20 21 22 24 25 26 29 31 33 33 32 29 27 24 20 17 17 15 13 4 315 204 196 194 192
19 19 19 19 18 16 14 13 11 9 6 4 4 5 6 6 6 8 9 10 10 10 11 13 14 15 15 16 17 17 17 17 18 19 19 19 20 20 21 20 19 17 17 18 18 19 20 21 22 25 27 30 32 32 32 31 29 25 18 10 4 359 351 335 318 279 232 210 202
18 18 19 18 16 15 13 12 11 8 6 5 6 7 8 9 9 10 11 12 12 11 11 13 16 17 16 16 17 18 18 18 18 18 18 18 19 20 20 20 19 17 17 17 17 17 17 18 20 22 25 28 31 32 33 33 32 29 24 18 9 359 346 330 313 292 267 237 217
16 17 17 16 15 13 13 13 11 9 7 7 8 9 11 11 12 12 13 14 14 14 13 14 15 17 18 17 17 18 18 18 18 18 18 18 18 19 19 19 19 18 17 16 15 15 15 16 17 19 22 25 29 31 33 34 33 31 29 26 21 13 2 346 326 305 283 258 237
16 16 15 14 13 13 13 14 12 8 7 8 9 11 12 13 14 15 15 14 15 16 16 17 17 17 18 18 18 17 17 18 18 17 17 18 18 18 18 17 17 17 16 15 14 13 13 14 15 16 18 22 25 28 31 32 32 31 29 28 25 21 16 7 351 328 302 275 255
15 15 14 14 14 14 15 15 13 11 10 10 11 12 13 15 16 16 16 15 15 17 18 19 18 18 18 17 17 16 16 17 17 16 17 17 17 17 17 17 16 16 16 15 13 12 11 12 12 13 14 17 21 24 27 29 30 29 28 26 24 23 21 19 10 353 330 304 280
15 15 14 14 15 15 17 17 17 15 14 13 13 13 14 16 16 16 16 16 17 18 19 20 20 19 18 18 17 16 16 17 17 17 16 17 16 17 17 17 16 16 15 14 12 11 10 10 11 11 12 12 15 19 23 26 27 27 26 24 21 20 21 21 17 8 354 335 314
15 15 15 16 17 17 18 19 19 18 18 17 15 14 14 15 16 16 16 18 19 20 21 21 20 20 19 19 18 17 17 17 17 17 17 17 16 16 17 18 17 16 15 13 12 10 9 9 9 9 10 9 10 13 18 21 24 25 25 22 19 17 18 19 18 15 7 356 340
15 16 17 18 19 19 20 20 20 20 20 19 16 14 14 14 14 15 17 18 19 20 21 22 21 21 20 20 19 19 18 17 17 17 17 17 17 17 17 18 17 16 14 12 11 11 11 10 8 7 7 7 6 7 11 16 20 23 24 22 19 17 15 16 16 16 13 6 355
15 16 18 20 21 21 21 22 22 21 20 19 18 18 16 15 14 15 15 17 18 20 20 21 21 21 21 21 21 20 20 19 17 16 16 16 17 18 18 17 16 15 13 11 10 11 12 13 12 10 8 7 5 4 6 9 13 18 21 22 21 18 14 12 12 12 12 8 1
15 16 18 21 22 22 22 22 22 21 21 20 20 19 18 17 15 14 15 16 17 18 19 20 21 21 22 22 21 21 20 20 19 17 16 15 16 17 18 18 16 14 12 10 9 8 10 13 15 15 14 13 9 6 4 4 5 8 13 18 20 18 15 11 7 5 5 4 0
14 15 17 20 21 21 21 21 21 22 21 21 20 19 18 17 15 16 16 16 16 17 19 20 21 21 21 22 21 21 21 20 19 18 18 17 17 17 17 18 16 14 12 10 8 7 7 9 14 18 20 19 15 9 6 5 3 3 4 8 12 15 14 10 5 2 1 3 2
14 16 17 19 19 19 19 20 21 21 21 21 19 19 19 17 17 17 17 17 17 17 19 19 20 20 21 21 21 21 21 21 20 19 19 18 18 18 18 17 15 13 12 10 9 8 6 6 11 16 22 23 20 15 10 8 7 5 3 0 1 4 6 7 3 0 359 4 12
15 17 18 19 18 17 17 19 19 20 20 20 19 19 19 19 18 18 18 17 18 18 18 18 18 20 21 21 21 21 21 21 21 20 19 19 19 19 18 17 14 12 11 11 9 8 6 5 7 13 20 26 24 18 13 11 11 10 8 3 358 354 354 355 357 357 355 353 3
15 17 19 19 17 15 15 17 17 17 18 19 19 19 19 19 19 18 18 17 17 17 17 17 19 21 22 22 21 21 21 20 20 19 19 19 19 18 18 17 14 13 11 11 9 7 6 5 5 9 16 25 25 20 15 13 13 14 13 10 4 357 349 344 344 346 346 346 347
15 17 18 18 17 15 14 15 16 16 17 18 19 19 20 19 18 18 17 16 15 14 15 17 20 22 22 22 23 22 21 20 19 19 19 18 17 17 17 17 15 14 12 11 9 7 6 5 4 7 12 19 22 19 15 13 14 16 17 16 13 7 358 345 337 333 334 333 331
15 17 18 17 16 14 14 15 15 15 16 18 18 19 19 19 18 17 16 14 13 12 13 15 18 20 20 21 22 22 21 20 19 18 18 17 16 15 15 16 15 14 13 13 11 8 6 4 4 6 9 14 17 16 13 12 13 15 17 19 19 16 11 0 346 331 322 321 318
16 18 17 15 14 13 13 13 14 14 15 17 18 19 18 17 17 17 15 14 12 12 12 14 16 17 19 19 20 20 20 20 19 17 17 16 15 15 15 15 15 13 13 13 12 11 8 6 4 5 7 10 12 11 9 9 10 12 14 16 18 21 20 15 5 348 328 313 309
16 17 17 14 13 12 12 12 13 14 14 16 18 18 18 17 17 16 15 13 12 11 12 13 15 17 18 19 20 19 19 18 17 17 16 15 14 14 14 15 14 12 12 13 13 13 11 9 6 5 6 8 8 7 6 6 7 9 9 10 13 17 21 22 19 10 354 329 308
16 17 15 13 12 12 10 11 12 14 14 15 16 17 17 17 17 16 14 11 10 10 11 12 14 16 18 19 21 20 19 18 17 16 15 15 14 13 12 12 11 11 11 13 13 13 13 11 9 7 6 7 6 4 3 4 4 5 5 5 7 10 14 18 22 22 16 2 338
14 16 16 13 11 10 9 9 11 13 14 15 16 15 15 15 17 15 13 10 9 10 11 11 12 14 16 18 19 19 18 17 15 15 15 14 13 12 10 9 9 8 10 12 12 12 12 12 11 10 8 7 4 2 1 1 1 0 0 0 1 3 5 9 15 20 23 19 9
12 15 16 14 11 9 8 9 10 12 14 15 15 14 13 13 15 14 12 11 11 11 11 11 12 13 14 16 17 17 17 16 15 14 14 14 12 10 8 6 6 7 8 9 10 11 11 12 12 11 10 8 5 2 360 359 358 357 357 357 357 357 358 0 4 9 13 17 19
9 13 15 15 12 10 9 9 10 11 12 13 13 12 12 12 13 13 13 12 11 10 10 11 12 12 11 12 14 15 16 16 16 14 13 12 11 9 7 5 4 5 6 7 9 9 10 10 11 12 11 10 7 4 0 358 356 355 354 353 352 352 353 353 354 357 0 5 11
5 9 12 14 13 12 11 9 9 10 11 13 12 10 10 11 12 11 11 12 11 10 9 10 10 9 9 9 12 13 14 15 15 14 13 11 10 8 6 4 3 3 4 5 7 8 9 9 10 11 11 10 8 6 3 359 356 354 353 351 349 348 348 349 349 348 350 354 0
1 4 8 10 12 13 11 9 7 7 10 14 13 9 8 9 10 10 10 11 11 9 9 9 8 7 7 9 11 12 12 12 13 13 12 10 8 7 6 5 3 2 3 4 5 6 7 7 8 9 10 9 7 6 5 1 358 355 353 351 348 346 344 344 344 343 343 346 350
357 0 2 4 7 11 12 10 5 3 8 14 14 10 9 8 7 9 10 11 10 8 8 7 7 7 8 10 13 12 11 9 9 9 9 8 7 6 6 5 3 2 2 2 3 4 5 6 7 8 8 8 6 5 5 3 0 357 353 350 347 343 341 339 339 339 339 341 341